Location: Czu?�w
(50.1404°N, 18.9919°E)
Time: 12:12:16
(UTC+00:00)

ADEOS Rocket - Pass Details

Date: 27 October 2020
Orbit: 859 x 1306 km, 98.7° (Epoch: 25 November)

Event Time Altitude Azimuth Distance (km) Brightness Sun altitude
Rises 16:33:55 0° 11° (NNE) 3,684 5.8 -11.0°
Reaches altitude 10° 16:36:20 10° 8° (N) 2,788 5.2 -11.4°
Maximum altitude 16:42:27 55° 292° (WNW) 1,290 4.0 -12.3°
Drops below altitude 10° 16:49:12 10° 218° (SW) 3,075 6.2 -13.4°
Sets 16:51:58 0° 214° (SW) 4,093 6.8 -13.9°
